Tracking 18980 objects as of 19-Feb-2018
HD Live streaming from Space Station
objects crossing your sky now

FENGYUN 1C DEB

Track FENGYUN 1C DEB now!
10-day predictions


NORAD ID: 30436
Int'l Code: 1999-025AEX
Perigee: 802.3 km
Apogee: 992.4 km
Inclination: 98.4 °
Period: 102.8 minutes
Semi major axis: 7268 km
RCS: 0.026 m2 (small)
Launch date: May 10, 1999
Source: People's Republic of China (PRC)
Launch site: Taiyaun Space Center, China (TSC)

Note: This is SATELLITE DEBRIS
aabbcc
Your satellite tracking list
Your tracking list is empty




NASA's NSSDC Master Catalog

Two Line Element Set (TLE):
1 30436U 99025AEX 18049.66385109  .00001123  00000-0  72083-3 0  9991
2 30436  98.4192 103.7533 0130796 326.8449 156.5099 14.01030291563443
Source of the keplerian elements: AFSPC